Regional Weather Roundup
Issued by NWS Sterling, VA

Home | Current Version | Previous Version | Graphics & Text | Print | Product List | Glossary On
Versions: 1 2 3 4 5 6 7 8 9 10 11 12 13 14 15 16 17 18 19 20 21 22 23 24 25 26 27 28 29 30 31 32 33 34 35 36 37 38 39 40 41 42 43 44 45 46 47 48 49 50
000
ASUS41 KLWX 051710
RWRLWX

REGIONAL WEATHER ROUNDUP
NATIONAL WEATHER SERVICE BALTIMORE MD/WASHINGTON DC
1200 PM EST THU MAR 05 2015

Note: "FAIR" indicates few or no clouds below 12,000 feet
with no significant weather and/or obstructions to visibility.
 TC=TEMPERATURE CELSIUS

 * =Non NWS site. Station does not report precipitation (e.g. rain,
    snow, etc.), thunder, or fog.

DCZ001-MDZ009-015-VAZ040>042-051-053>054-051800-
WASHINGTON METRO

CITY           SKY/WX    TMP DP  RH WIND       PRES   REMARKS
WASHINGTON NAT HVY SNOW  32  27  81 N16       30.17F VSB 1/4 WCI  21
DULLES         SNOW      28  25  88 N13       30.16F VSB 1/2 WCI  17
ANDREWS AFB    LGT SNOW  30  28  93 N16       30.12F VSB 1   WCI  19
FT BELVOIR     LGT SNOW  32  28  86 NW8       30.15F VSB 1   WCI  25
QUANTICO       LGT SNOW  31  28  89 N15G24    30.17F FOG     WCI  20
COLLEGE PARK*  CLOUDY    32  30  93 NW9       30.15F VSB 3/4 WCI  24
MANASSAS*      CLOUDY    30  30 100 N13G20    30.16F VSB 3/4 WCI  20
GAITHERSBURG*  CLOUDY    28  25  86 N5        30.19F VSB 1/2

$$

MDZ006>007-011-014-051800-
BALTIMORE METRO

CITY           SKY/WX    TMP DP  RH WIND       PRES   REMARKS
BWI AIRPORT    SNOW      30  28  92 N8        30.15R VSB 1/2 WCI  22
MD SCIENCE CTR   N/A     31  27  85 MISG      30.17R
MARTIN STATE   SNOW      32  30  93 N7        30.20R VSB 1/2
ANNAPOLIS      SNOW      31  29  92 NW10      30.16F VSB 1/4 WCI  22
FORT MEADE*    PTSUNNY   30  28  93 CALM      30.18F VSB 1/2

$$

MDZ012-015-019>023-051800-
MARYLAND EASTERN SHORE

CITY           SKY/WX    TMP DP  RH WIND       PRES   REMARKS
OCEAN CITY     RAIN      33  32  96 NE17G23   30.10S FOG     WCI  22
SALISBURY      RAIN      37  33  85 N10       30.10R FOG
BAY BRIDGE AP* SNOW      32  32 100 N13G20    30.16F VSB 1/2 WCI  22
CAMBRIDGE*     CLOUDY    34  32  93 N12G18    30.13R WCI  25
EASTON*        LGT SNOW  34  34 100 N7        30.19R VSB 1

$$

MDZ017>025-051800-
SOUTHERN MARYLAND

CITY           SKY/WX    TMP DP  RH WIND       PRES   REMARKS
PATUXENT RIVER LGTSLEET  33  29  85 N16       30.14R FOG     WCI  23
ST INIGOES     LGT RAIN  33  29  85 VRB6      30.13S FOG
LEONARDTOWN*   CLOUDY    32  30  93 N6        30.15F

$$

MDZ003>005-051800-
NORTH CENTRAL MARYLAND

CITY           SKY/WX    TMP DP  RH WIND       PRES   REMARKS
FREDERICK*     SNOW      30  25  80 N7        30.20F VSB 1/2
HAGERSTOWN APT HVY SNOW  23  20  88 N14       30.18F VSB 1/4 WCI  11
WESTMINSTER*   SNOW      27  23  86 N6        30.14F VSB 1/4

$$

MDZ501>502-051800-
WESTERN MARYLAND

CITY           SKY/WX    TMP DP  RH WIND       PRES   REMARKS
OAKLAND*       CLOUDY    14 N/A N/A NW7       30.05R FOG
CUMBERLAND*    CLOUDY    25  21  86 CALM      30.24S

$$

VAZ025>031-051800-
SHENANDOAH VALLEY

CITY           SKY/WX    TMP DP  RH WIND       PRES   REMARKS
WINCHESTER*    NOT AVBL
FRONT ROYAL*   NOT AVBL
LURAY*         NOT AVBL
NEW MARKET*    NOT AVBL
STAUNTON*      NOT AVBL
WAYNESBORO*    NOT AVBL

$$

WVZ021-048>050-054>055-051800-
EASTERN WEST VIRGINIA PANHANDLE

CITY           SKY/WX    TMP DP  RH WIND       PRES   REMARKS
MARTINSBURG    HVY SNOW  25  21  85 NW9       30.19S VSB 1/4 WCI  15
PETERSBURG*    NOT AVBL

$$

VAZ036>039-050-051800-
CENTRAL FOOTHILLS

CITY           SKY/WX    TMP DP  RH WIND       PRES   REMARKS
CHARLOTTESVILL LGT SNOW  31  29  92 N10       30.12R VSB 1   WCI  22
CULPEPER*      LGT SNOW  30  28  93 NE7       30.14F VSB 3/4
ORANGE*        NOT AVBL
GORDONSVILLE*  NOT AVBL
WARRENTON*     NOT AVBL

$$

VAZ055>057-051800-
NORTH AND CENTRAL PIEDMONT

CITY           SKY/WX    TMP DP  RH WIND       PRES   REMARKS
FREDERICKSBRG* NOT AVBL
STAFFORD*      NOT AVBL

$$

NCZ024-NYZ072-PAZ021-071-VAZ022-071-051800-
OTHER REGIONAL OBSERVATIONS

CITY           SKY/WX    TMP DP  RH WIND       PRES   REMARKS
NEW YORK CITY  SNOW      23  21  92 W9G18     30.18R VSB 1/4 WCI  13
PHILADELPHIA   SNOW      28  26  92 N10       30.20R VSB 1/2 WCI  19
PITTSBURGH     CLOUDY    16   4  59 NW12      30.25R WCI   3
ROANOKE        RAIN      36  33  89 NE10      30.09R FOG     WCI  28
RICHMOND       LGTSLEET  35  31  85 N13       30.11F FOG     WCI  26
RALEIGH        RAIN      42  39  89 N12G22    29.97S FOG

$$

ANZ530>537-051800-
MARINE OBSERVATIONS

STATION/POSITION TIME  TEMP    WIND        PRES
                       AIR SEA DIR/SP/G
                 (UTC) (F)     (DEG/KT/KT) (MB)
THOMAS PT LIGHT  1700   31 31  350/ 11/ 13 1021.9S
BALT KEY BRIDGE  1600   31     310/ 11/ 12 1021.0R
COVE POINT       1600   31     360/ 11/ 15 1019.6R
LEWISETTA        1600   33 34   10/  8/ 14 1019.4F
SOLOMONS ISLAND  1600      33                N/A

$$




USA.gov is the U.S. government's official web portal to all federal, state and local government web resources and services.